Change the Weather History Date:

Monday, November 4, 2013

  Actual Average Record
Temperature  
Mean Temperature 37 °F -  
Max Temperature 46 °F 59 °F 82 °F (2003)
Min Temperature 28 °F 34 °F 21 °F (2006)
Degree Days  
Heating Degree Days 28    
Moisture  
Dew Point 27 °F    
Average Humidity 72    
Maximum Humidity 100    
Minimum Humidity 37    
Precipitation  
Precipitation 0.00 in - - ()
Sea Level Pressure  
Sea Level Pressure 30.57 in    
Wind  
Wind Speed 5 mph (North)    
Max Wind Speed 9 mph    
Max Gust Speed -    
Visibility 10 miles    
Events      
Averages and records for this station are not official NWS values.
T = Trace of Precipitation, MM = Missing Value Source: NWS Daily Summary

Daily Weather History Graph

Daily Weather History Graph

Search for Another Location

Airport or City:

Trip Planner

Search our weather history database for the weather conditions in past years. The results will help you decide how hot, cold, wet, or windy it might be!

Date:

Astronomy

Nov. 04, 2013 Rise Set
Actual Time 6:40 AM EST 5:06 PM EST
Civil Twilight 6:12 AM EST 5:34 PM EST
Nautical Twilight 5:41 AM EST 6:05 PM EST
Astronomical Twilight 5:10 AM EST 6:36 PM EST
Moon 7:48 AM EST (11/4) 6:10 PM EST (11/4)
Length of Visible Light 11h 21m
Length of Day
10h 25m
New Moon, 2% of the Moon is Illuminated
Nov 4
New Moon
Nov 10
First Quarter
Nov 17
Full
Nov 25
Last Quarter
Dec 2
New

Hourly Weather History & Observations

Time (EST) Temp. Windchill Dew Point Humidity Pressure Visibility Wind Dir Wind Speed Gust Speed Precip Events Conditions
12:15 AM 39.2 °F 35.0 °F 26.6 °F 61% 30.46 in 10.0 mi NNE 5.8 mph - N/A   Clear
12:35 AM 39.2 °F 35.9 °F 26.6 °F 61% 30.47 in 10.0 mi NNE 4.6 mph - N/A   Clear
12:55 AM 39.2 °F 35.9 °F 26.6 °F 61% 30.47 in 10.0 mi North 4.6 mph - N/A   Clear
1:15 AM 37.4 °F 34.9 °F 26.6 °F 65% 30.48 in 10.0 mi North 3.5 mph - N/A   Clear
1:35 AM 37.4 °F 32.8 °F 26.6 °F 65% 30.49 in 10.0 mi North 5.8 mph - N/A   Clear
1:55 AM 37.4 °F 33.8 °F 26.6 °F 65% 30.50 in 10.0 mi NNE 4.6 mph - N/A   Clear
2:15 AM 35.6 °F 30.7 °F 26.6 °F 70% 30.51 in 10.0 mi North 5.8 mph - N/A   Clear
2:35 AM 35.6 °F 31.7 °F 26.6 °F 70% 30.52 in 10.0 mi North 4.6 mph - N/A   Clear
2:55 AM 33.8 °F 28.6 °F 26.6 °F 75% 30.54 in 10.0 mi NNW 5.8 mph - N/A   Clear
3:15 AM 33.8 °F 28.6 °F 26.6 °F 75% 30.55 in 10.0 mi North 5.8 mph - N/A   Clear
3:35 AM 33.8 °F 28.6 °F 26.6 °F 75% 30.55 in 10.0 mi North 5.8 mph - N/A   Clear
3:55 AM 33.8 °F 28.6 °F 26.6 °F 75% 30.56 in 10.0 mi North 5.8 mph - N/A   Clear
4:15 AM 33.8 °F 27.0 °F 26.6 °F 75% 30.56 in 10.0 mi North 8.1 mph - N/A   Clear
4:35 AM 33.8 °F 27.0 °F 26.6 °F 75% 30.56 in 10.0 mi North 8.1 mph - N/A   Clear
4:55 AM 33.8 °F 29.6 °F 26.6 °F 75% 30.57 in 10.0 mi NNW 4.6 mph - N/A   Clear
5:15 AM 32.0 °F 27.5 °F 26.6 °F 80% 30.57 in 10.0 mi North 4.6 mph - N/A   Clear
5:35 AM 32.0 °F 26.4 °F 26.6 °F 80% 30.58 in 10.0 mi North 5.8 mph - N/A   Clear
5:55 AM 30.2 °F 25.4 °F 26.6 °F 86% 30.58 in 10.0 mi NNW 4.6 mph - N/A   Clear
6:15 AM 28.4 °F 22.2 °F 26.6 °F 93% 30.59 in 10.0 mi NNW 5.8 mph - N/A   Clear
6:30 AM 28.4 °F 22.2 °F 24.8 °F 86% 30.60 in 10.0 mi NNW 5.8 mph - N/A   Clear
6:35 AM 28.4 °F 22.2 °F 26.6 °F 93% 30.60 in 10.0 mi NNW 5.8 mph - N/A   Clear
7:45 AM 33.8 °F 26.4 °F 26.6 °F 75% 30.61 in 10.0 mi North 9.2 mph - N/A   Clear
8:55 AM 37.4 °F 30.8 °F 24.8 °F 60% 30.63 in 10.0 mi NE 9.2 mph - N/A   Clear
9:50 AM 41.0 °F 37.1 °F 24.8 °F 53% 30.64 in 10.0 mi NNE 5.8 mph - N/A   Clear
10:45 AM 42.8 °F 40.1 °F 21.2 °F 42% 30.64 in 10.0 mi NNE 4.6 mph - N/A   Clear
11:50 AM 44.6 °F 42.2 °F 21.2 °F 39% 30.62 in 10.0 mi Variable 4.6 mph - N/A   Clear
1:45 PM 44.6 °F 41.4 °F 21.2 °F 39% 30.59 in 10.0 mi ENE 5.8 mph - N/A   Clear
2:45 PM 46.4 °F - 21.2 °F 37% 30.59 in 10.0 mi Calm Calm - N/A   Clear
3:45 PM 46.4 °F - 21.2 °F 37% 30.59 in 10.0 mi Calm Calm - N/A   Clear
4:45 PM 44.6 °F - 21.2 °F 39% 30.59 in 10.0 mi Calm Calm - N/A   Clear
6:45 PM 39.2 °F 35.9 °F 26.6 °F 61% 30.60 in 10.0 mi ESE 4.6 mph - N/A   Clear
7:45 PM 35.6 °F - 30.2 °F 81% 30.61 in 10.0 mi Calm Calm - N/A   Clear
9:55 PM 35.6 °F - 32.0 °F 87% 30.64 in 10.0 mi Calm Calm - N/A   Clear
10:15 PM 33.8 °F - 32.0 °F 93% 30.63 in 10.0 mi Calm Calm - N/A   Clear
10:35 PM 33.8 °F - 33.8 °F 100% 30.64 in 10.0 mi Calm Calm - N/A   Clear
10:55 PM 33.8 °F - 32.0 °F 93% 30.62 in 10.0 mi Calm Calm - N/A   Clear
11:15 PM 33.8 °F - 32.0 °F 93% 30.62 in 10.0 mi Calm Calm - N/A   Clear
11:35 PM 33.8 °F - 33.8 °F 100% 30.61 in 10.0 mi Calm Calm - N/A   Clear
11:55 PM 33.8 °F - 33.8 °F 100% 30.62 in 10.0 mi Calm Calm - N/A   Clear